When you browse on this site, cookies collect data to enhance your experience and personalize the content and advertising you see.
Visit our Privacy Policy to learn more. By continuing to use the site, you agree to this use of cookies and data.
  • In United Kingdom
  • List of Countries
  • For 7 days
  • Water Temperature
  • Satellite Maps
  • Weather Map
  • Weather Widgets
  • user-avatar
    Login

    Hourly Weather Hardenberg

    Today, 24 April, Wednesday

    Time Temperature Precipitation Wind Pressure Humidity
    00:00 +14°C° 0 mm 4 mps 747 mmHg 72%
    01:00 +14°C° 0 mm 4 mps 747 mmHg 72%
    02:00 +14°C° 0 mm 3 mps 747 mmHg 73%
    03:00 +14°C° 0 mm 3 mps 747 mmHg 74%
    04:00 +16°C° 0 mm 3 mps 748 mmHg 74%
    05:00 +15°C° 0 mm 4 mps 748 mmHg 74%
    06:00 +15°C° 0 mm 4 mps 748 mmHg 75%
    07:00 +18°C° 0 mm 4 mps 748 mmHg 69%
    08:00 +20°C° 0 mm 5 mps 749 mmHg 64%
    09:00 +22°C° 0 mm 5 mps 749 mmHg 59%
    10:00 +23°C° 0 mm 6 mps 749 mmHg 54%
    11:00 +24°C° 0 mm 6 mps 749 mmHg 49%
    12:00 +26°C° 0 mm 7 mps 749 mmHg 44%
    13:00 +26°C° 0 mm 7 mps 749 mmHg 43%
    14:00 +26°C° 0 mm 6 mps 749 mmHg 43%
    15:00 +26°C° 0 mm 6 mps 749 mmHg 42%
    16:00 +25°C° 0 mm 5 mps 749 mmHg 47%
    17:00 +22°C° 0 mm 4 mps 749 mmHg 52%
    18:00 +21°C° 0 mm 3 mps 749 mmHg 57%
    19:00 +19°C° 0.9 mm 4 mps 750 mmHg 66%
    20:00 +16°C° 0.9 mm 6 mps 750 mmHg 76%
    21:00 +14°C° 0.9 mm 7 mps 751 mmHg 85%
    22:00 +13°C° 1 mm 6 mps 751 mmHg 86%
    23:00 +13°C° 1 mm 5 mps 752 mmHg 87%

    Tomorrow, 25 April, Thursday

    Time Temperature Precipitation Wind Pressure Humidity
    00:00 +12°C° 1 mm 4 mps 752 mmHg 88%
    01:00 +11°C° 0 mm 4 mps 753 mmHg 88%
    02:00 +11°C° 0 mm 3 mps 753 mmHg 89%
    03:00 +10°C° 0 mm 3 mps 753 mmHg 89%
    04:00 +10°C° 0 mm 4 mps 753 mmHg 85%
    05:00 +10°C° 0 mm 5 mps 753 mmHg 82%
    06:00 +12°C° 0 mm 5 mps 753 mmHg 78%
    07:00 +13°C° 0 mm 6 mps 754 mmHg 71%
    08:00 +15°C° 0 mm 7 mps 754 mmHg 64%
    09:00 +16°C° 0 mm 8 mps 755 mmHg 56%
    10:00 +17°C° 0 mm 8 mps 755 mmHg 55%
    11:00 +18°C° 0 mm 8 mps 755 mmHg 54%
    12:00 +18°C° 0 mm 8 mps 755 mmHg 53%
    13:00 +20°C° 0 mm 8 mps 754 mmHg 53%
    14:00 +20°C° 0 mm 8 mps 754 mmHg 52%
    15:00 +20°C° 0 mm 8 mps 754 mmHg 51%
    16:00 +19°C° 0 mm 6 mps 754 mmHg 59%
    17:00 +17°C° 0 mm 5 mps 755 mmHg 66%
    18:00 +16°C° 0 mm 3 mps 755 mmHg 73%
    19:00 +14°C° 0.5 mm 3 mps 755 mmHg 79%
    20:00 +14°C° 0.5 mm 3 mps 755 mmHg 84%
    21:00 +13°C° 0.5 mm 3 mps 756 mmHg 89%
    22:00 +12°C° 2.3 mm 3 mps 756 mmHg 90%
    23:00 +11°C° 2.3 mm 3 mps 756 mmHg 92%

    Day after tomorrow, 26 April, Friday

    Time Temperature Precipitation Wind Pressure Humidity
    00:00 +10°C° 2.3 mm 4 mps 756 mmHg 94%
    01:00 +10°C° 0.7 mm 3 mps 756 mmHg 93%
    02:00 +10°C° 0.7 mm 2 mps 757 mmHg 93%
    03:00 +9°C° 0.7 mm 2 mps 757 mmHg 93%
    04:00 +10°C° 0 mm 2 mps 757 mmHg 92%
    05:00 +10°C° 0 mm 2 mps 757 mmHg 91%
    06:00 +10°C° 0 mm 2 mps 757 mmHg 91%
    07:00 +12°C° 0.2 mm 2 mps 757 mmHg 89%
    08:00 +11°C° 0.2 mm 3 mps 758 mmHg 88%
    09:00 +11°C° 0.2 mm 3 mps 758 mmHg 86%
    10:00 +12°C° 0 mm 3 mps 758 mmHg 78%
    11:00 +14°C° 0 mm 4 mps 759 mmHg 70%
    12:00 +15°C° 0 mm 4 mps 759 mmHg 62%
    13:00 +15°C° 0 mm 4 mps 759 mmHg 60%
    14:00 +17°C° 0 mm 3 mps 759 mmHg 57%
    15:00 +17°C° 0 mm 3 mps 759 mmHg 55%
    16:00 +16°C° 0 mm 3 mps 759 mmHg 59%
    17:00 +16°C° 0 mm 2 mps 759 mmHg 64%
    18:00 +15°C° 0 mm 2 mps 759 mmHg 68%
    19:00 +14°C° 0 mm 2 mps 759 mmHg 72%
    20:00 +13°C° 0 mm 2 mps 759 mmHg 77%
    21:00 +10°C° 0 mm 2 mps 759 mmHg 81%
    22:00 +10°C° 0 mm 2 mps 759 mmHg 83%
    23:00 +9°C° 0 mm 3 mps 759 mmHg 86%

    27 April, Saturday

    Time Temperature Precipitation Wind Pressure Humidity
    00:00 +9°C° 0 mm 3 mps 759 mmHg 88%
    01:00 +8°C° 0 mm 3 mps 759 mmHg 89%
    02:00 +8°C° 0 mm 3 mps 758 mmHg 90%
    03:00 +6°C° 0 mm 4 mps 758 mmHg 92%
    04:00 +7°C° 0 mm 4 mps 758 mmHg 88%
    05:00 +7°C° 0 mm 4 mps 758 mmHg 85%
    06:00 +8°C° 0 mm 5 mps 758 mmHg 81%
    07:00 +8°C° 0.2 mm 5 mps 757 mmHg 79%
    08:00 +9°C° 0.2 mm 5 mps 757 mmHg 76%
    09:00 +10°C° 0.2 mm 6 mps 757 mmHg 74%
    10:00 +10°C° 0.5 mm 6 mps 757 mmHg 76%
    11:00 +10°C° 0.5 mm 5 mps 756 mmHg 78%
    12:00 +10°C° 0.5 mm 5 mps 756 mmHg 81%
    13:00 +12°C° 0.3 mm 5 mps 756 mmHg 75%
    14:00 +13°C° 0.3 mm 4 mps 756 mmHg 70%
    15:00 +14°C° 0.3 mm 4 mps 755 mmHg 64%
    16:00 +13°C° 0.1 mm 3 mps 756 mmHg 67%
    17:00 +14°C° 0.1 mm 2 mps 756 mmHg 70%
    18:00 +13°C° 0.1 mm 1 mps 756 mmHg 73%
    19:00 +12°C° 0.1 mm 2 mps 757 mmHg 78%
    20:00 +10°C° 0.1 mm 2 mps 758 mmHg 82%
    21:00 +9°C° 0.1 mm 2 mps 758 mmHg 87%
    22:00 +9°C° 0 mm 3 mps 759 mmHg 90%
    23:00 +8°C° 0 mm 3 mps 759 mmHg 92%

    28 April, Sunday

    Time Temperature Precipitation Wind Pressure Humidity
    00:00 +7°C° 0 mm 3 mps 760 mmHg 95%
    01:00 +7°C° 0 mm 3 mps 760 mmHg 96%
    02:00 +7°C° 0 mm 3 mps 761 mmHg 96%
    03:00 +5°C° 0 mm 3 mps 761 mmHg 97%
    04:00 +7°C° 0 mm 3 mps 762 mmHg 94%
    05:00 +8°C° 0 mm 3 mps 762 mmHg 91%
    06:00 +8°C° 0 mm 3 mps 763 mmHg 88%
    07:00 +9°C° 0.1 mm 3 mps 763 mmHg 86%
    08:00 +10°C° 0.1 mm 3 mps 763 mmHg 83%
    09:00 +10°C° 0.1 mm 3 mps 764 mmHg 81%
    10:00 +11°C° 0 mm 3 mps 764 mmHg 76%
    11:00 +12°C° 0 mm 3 mps 764 mmHg 72%
    12:00 +14°C° 0 mm 2 mps 764 mmHg 68%
    13:00 +13°C° 0 mm 3 mps 764 mmHg 68%
    14:00 +13°C° 0 mm 4 mps 764 mmHg 67%
    15:00 +13°C° 0 mm 4 mps 765 mmHg 67%
    16:00 +13°C° 0 mm 4 mps 765 mmHg 70%
    17:00 +12°C° 0 mm 4 mps 765 mmHg 74%
    18:00 +11°C° 0 mm 3 mps 765 mmHg 77%
    19:00 +10°C° 0 mm 3 mps 766 mmHg 83%
    20:00 +8°C° 0 mm 3 mps 766 mmHg 89%
    21:00 +7°C° 0 mm 2 mps 767 mmHg 94%
    22:00 +6°C° 0 mm 2 mps 767 mmHg 95%
    23:00 +6°C° 0 mm 2 mps 767 mmHg 96%

    29 April, Monday

    Time Temperature Precipitation Wind Pressure Humidity
    00:00 +6°C° 0 mm 2 mps 767 mmHg 96%
    01:00 +5°C° 0 mm 2 mps 767 mmHg 96%
    02:00 +6°C° 0 mm 1 mps 767 mmHg 96%
    03:00 +6°C° 0 mm 1 mps 767 mmHg 97%
    04:00 +7°C° 0 mm 1 mps 767 mmHg 94%
    05:00 +7°C° 0 mm 1 mps 768 mmHg 92%
    06:00 +8°C° 0 mm 1 mps 768 mmHg 90%
    07:00 +10°C° 0 mm 1 mps 768 mmHg 83%
    08:00 +12°C° 0 mm 1 mps 768 mmHg 75%
    09:00 +14°C° 0 mm 1 mps 768 mmHg 67%
    10:00 +14°C° 0 mm 1 mps 767 mmHg 64%
    11:00 +15°C° 0 mm 1 mps 767 mmHg 61%
    12:00 +16°C° 0 mm 2 mps 767 mmHg 58%
    13:00 +16°C° 0 mm 2 mps 767 mmHg 60%
    14:00 +16°C° 0 mm 2 mps 767 mmHg 62%
    15:00 +14°C° 0 mm 3 mps 766 mmHg 64%
    16:00 +14°C° 0 mm 3 mps 766 mmHg 68%
    17:00 +13°C° 0 mm 3 mps 766 mmHg 72%
    18:00 +13°C° 0 mm 3 mps 766 mmHg 75%
    19:00 +11°C° 0 mm 3 mps 766 mmHg 81%
    20:00 +9°C° 0 mm 3 mps 767 mmHg 86%
    21:00 +8°C° 0 mm 3 mps 767 mmHg 91%
    22:00 +7°C° 0 mm 3 mps 766 mmHg 93%
    23:00 +7°C° 0 mm 3 mps 766 mmHg 95%
    Show more